Weather History for PHLI - May, 2014

Change the Weather History Date:

Saturday, May 31, 2014

  Actual Average Record
Temperature  
Mean Temperature 79 °F 77 °F  
Max Temperature 82 °F 82 °F 87 °F (1962)
Min Temperature 75 °F 72 °F 65 °F (1950)
Degree Days  
Heating Degree Days 0 0  
Month to date heating degree days 0 0  
Since 1 July heating degree days 0 0  
Cooling Degree Days 14 12  
Month to date cooling degree days 345 335  
Year to date cooling degree days 1221 1239  
Growing Degree Days 28 (Base 50)    
Moisture  
Dew Point 70 °F    
Average Humidity 76    
Maximum Humidity 82    
Minimum Humidity 69    
Precipitation  
Precipitation T in 0.05 in 0.22 in (1970)
Month to date precipitation 2.81 2.07  
Year to date precipitation 15.79 15.84  
Snow  
Snow 0.00 in - - ()
Month to date snowfall 0.0  
Since 1 July snowfall 0.0  
Snow Depth 0.00 in    
Sea Level Pressure  
Sea Level Pressure 30.03 in    
Wind  
Wind Speed 13 mph (ENE)    
Max Wind Speed 16 mph    
Max Gust Speed 20 mph    
Visibility 10 miles    
Events      
T = Trace of Precipitation, MM = Missing Value Source: NWS Daily Summary

Daily Weather History Graph

Daily Weather History Graph

Search for Another Location

Airport or City:

Trip Planner

Search our weather history database for the weather conditions in past years. The results will help you decide how hot, cold, wet, or windy it might be!

Date:

Astronomy

May. 31, 2014 Rise Set
Actual Time 5:53 AM HST 7:16 PM HST
Civil Twilight 5:28 AM HST 7:41 PM HST
Nautical Twilight 4:59 AM HST 8:10 PM HST
Astronomical Twilight 4:29 AM HST 8:41 PM HST
Moon 8:32 AM HST 9:54 PM HST
Length of Visible Light 14h 12m
Length of Day
13h 23m
Waxing Crescent, 10% of the Moon is Illuminated
May 31
Waxing Crescent
Jun 5
First Quarter
Jun 12
Full
Jun 19
Last Quarter
Jun 26
New

Hourly Weather History & Observations

Time (HST) Temp. Heat Index Dew Point Humidity Pressure Visibility Wind Dir Wind Speed Gust Speed Precip Events Conditions
12:39 AM 75.2 °F - 69.8 °F 83% 30.06 in 10.0 mi East 12.7 mph - N/A   Overcast
12:53 AM 75.9 °F - 70.0 °F 82% 30.05 in 10.0 mi ENE 13.8 mph - N/A   Overcast
1:53 AM 75.9 °F - 69.1 °F 79% 30.04 in 10.0 mi East 13.8 mph - N/A   Partly Cloudy
2:24 AM 75.2 °F - 69.8 °F 83% 30.04 in 10.0 mi ENE 12.7 mph - N/A   Mostly Cloudy
2:31 AM 75.2 °F - 69.8 °F 83% 30.04 in 10.0 mi ENE 13.8 mph - N/A   Scattered Clouds
2:53 AM 75.0 °F - 69.1 °F 82% 30.03 in 10.0 mi ENE 12.7 mph - N/A   Partly Cloudy
3:53 AM 75.9 °F - 69.1 °F 79% 30.01 in 10.0 mi ENE 12.7 mph - N/A   Overcast
4:09 AM 75.2 °F - 69.8 °F 83% 30.02 in 10.0 mi East 11.5 mph - N/A   Overcast
4:32 AM 75.2 °F - 68.0 °F 78% 30.02 in 10.0 mi East 13.8 mph - N/A   Mostly Cloudy
4:53 AM 75.0 °F - 69.1 °F 82% 30.02 in 10.0 mi ENE 10.4 mph - N/A   Scattered Clouds
5:18 AM 75.2 °F - 69.8 °F 83% 30.02 in 10.0 mi ENE 10.4 mph - N/A   Mostly Cloudy
5:41 AM 75.2 °F - 69.8 °F 83% 30.02 in 10.0 mi East 12.7 mph - 0.00 in   Scattered Clouds
5:53 AM 75.0 °F - 69.1 °F 82% 30.01 in 10.0 mi East 12.7 mph - 0.00 in   Partly Cloudy
6:53 AM 77.0 °F - 69.1 °F 76% 30.03 in 10.0 mi ENE 13.8 mph - N/A   Mostly Cloudy
7:53 AM 77.0 °F - 69.1 °F 76% 30.04 in 10.0 mi East 12.7 mph - N/A   Partly Cloudy
8:53 AM 80.1 °F 83.2 °F 70.0 °F 71% 30.06 in 10.0 mi East 11.5 mph - N/A   Partly Cloudy
9:53 AM 81.0 °F 84.4 °F 70.0 °F 69% 30.06 in 10.0 mi East 13.8 mph - N/A   Partly Cloudy
10:53 AM 81.0 °F 84.9 °F 71.1 °F 72% 30.05 in 10.0 mi ENE 13.8 mph - N/A   Clear
11:53 AM 81.0 °F 84.4 °F 70.0 °F 69% 30.04 in 10.0 mi ENE 12.7 mph - N/A   Scattered Clouds
12:53 PM 82.4 °F 87.2 °F 71.6 °F 70% 30.04 in 10.0 mi East 12.7 mph - N/A   Partly Cloudy
1:53 PM 82.0 °F 86.3 °F 71.1 °F 69% 30.02 in 10.0 mi ENE 11.5 mph - N/A   Partly Cloudy
2:13 PM 82.4 °F 86.3 °F 69.8 °F 66% 30.03 in 10.0 mi East 12.7 mph - N/A   Mostly Cloudy
2:31 PM 80.6 °F 83.9 °F 69.8 °F 70% 30.03 in 10.0 mi ENE 12.7 mph - N/A   Scattered Clouds
2:53 PM 81.0 °F 84.4 °F 70.0 °F 69% 30.01 in 10.0 mi ENE 13.8 mph - N/A   Partly Cloudy
3:53 PM 81.0 °F 84.4 °F 70.0 °F 69% 30.00 in 10.0 mi ENE 12.7 mph - N/A   Partly Cloudy
4:53 PM 80.1 °F 83.2 °F 70.0 °F 71% 30.00 in 10.0 mi ENE 10.4 mph - N/A   Clear
5:13 PM 78.8 °F - 69.8 °F 74% 30.01 in 10.0 mi ENE 10.4 mph - N/A   Mostly Cloudy
5:53 PM 78.1 °F - 69.1 °F 74% 30.00 in 10.0 mi ENE 11.5 mph - N/A   Mostly Cloudy
6:53 PM 77.0 °F - 70.0 °F 79% 30.01 in 10.0 mi East 12.7 mph - N/A   Mostly Cloudy
7:02 PM 77.0 °F - 69.8 °F 78% 30.02 in 10.0 mi ENE 12.7 mph - N/A   Scattered Clouds
7:53 PM 77.0 °F - 70.0 °F 79% 30.02 in 10.0 mi East 12.7 mph - N/A   Mostly Cloudy
8:49 PM 75.2 °F - 69.8 °F 83% 30.04 in 10.0 mi East 13.8 mph - N/A   Mostly Cloudy
8:53 PM 77.0 °F - 69.1 °F 76% 30.04 in 10.0 mi East 11.5 mph - N/A   Mostly Cloudy
9:53 PM 77.0 °F - 70.0 °F 79% 30.05 in 10.0 mi East 12.7 mph - N/A   Overcast
10:01 PM 77.0 °F - 69.8 °F 78% 30.06 in 10.0 mi East 10.4 mph - N/A   Overcast
10:11 PM 77.0 °F - 69.8 °F 78% 30.06 in 10.0 mi East 11.5 mph - N/A   Overcast
10:53 PM 77.0 °F - 70.0 °F 79% 30.05 in 10.0 mi East 10.4 mph - N/A   Overcast
11:53 PM 75.9 °F - 70.0 °F 82% 30.04 in 10.0 mi East 12.7 mph - N/A   Overcast